Regional Weather Roundup
Issued by NWS

Home | Current Version | Previous Version | Text Only | Print | Product List | Glossary On
Versions: 1 2 3 4 5 6 7 8 9 10 11 12 13 14 15 16 17 18 19 20 21 22 23 24 25 26 27
000
ASUS42 KTBW 250010
RWRFL
FLORIDA REGIONAL WEATHER ROUNDUP
NATIONAL WEATHER SERVICE TAMPA BAY RUSKIN FL
800 PM EDT FRI OCT 24 2014

NOTE: "FAIR" INDICATES FEW OR NO CLOUDS BELOW 12,000 FEET WITH NO
SIGNIFICANT WEATHER AND/OR OBSTRUCTIONS TO VISIBILITY.


FLZ001>010-012>015-112-114-115-250100-
PANHANDLE FLORIDA

CITY           SKY/WX    TMP DP  RH WIND       PRES   REMARKS
PENSACOLA      CLEAR     63  45  51 CALM      30.01R
PENSACOLA NAS  CLEAR     59  52  77 CALM      30.02R
MILTON NAS     PTCLDY    62  47  57 N5        30.02R
CRESTVIEW      CLEAR     58  51  78 CALM      30.03R
DUKE FIELD     CLEAR     61  49  64 CALM      30.01S
VALPARAISO     CLEAR     66  46  48 NW3       30.01R
MARY ESTHER    CLEAR     67  45  45 CALM      30.00R
PANAMA CITY    FAIR      61  51  70 CALM      30.00R
TYNDALL AFB    CLEAR     62  54  74 NW7       30.00S
APALACHICOLA   CLEAR     65  53  65 CALM      29.99S

STATION/POSITION SKY/WX   TEMP    WIND        PRES    WAVE   SWELL
                          AIR SEA DIR/SP/G            HT/PER HT/PER
                          (F)     (DEG/KT/KT) (MB)    (FT/S) (FT/S)
30.1N   87.6W              75 78  340/  6/  8 1016.0R   2/ 7   2/ 7
PANAMA CITY BEAC           69 77  360/  4/  4 1016.0R
CAPE SAN BLAS    NOT AVBL
TOWER C                    70     320/  7/  8 1016.0R
28.5N   84.5W              72 80   10/ 14/ 17 1015.1R   2/ 4

$$
FLZ011-016>038-118-127-128-134-139-239-250100-
NORTH FLORIDA

CITY           SKY/WX    TMP DP  RH WIND       PRES   REMARKS
MARIANNA       CLEAR     62  48  60 CALM      29.99R
TALLAHASSEE    CLEAR     63  48  58 CALM      29.98S
PERRY          CLEAR     59  52  77 CALM      30.00R
CROSS CITY       N/A     62  52  69 N6        29.97R
LAKE CITY      FAIR      57  52  82 N3        29.99R
GAINESVILLE    CLEAR     63  53  70 N3        29.97R
MAYPORT NAS    CLEAR     67  56  67 N6        29.98R
JACKSONVILLE   CLEAR     60  56  86 NE3       29.98R
JAX NAS        CLEAR     71  55  56 NE10      29.99R
JAX CRAIG      CLEAR     62  55  77 N3        29.98R
JAX CECIL      CLEAR     59  55  88 CALM      29.98R
FERNANDINA BEA FAIR      66  55  68 CALM      29.98R
ST AUGUSTINE   CLEAR     65  57  75 NW7       29.98R

STATION/POSITION SKY/WX   TEMP    WIND        PRES    WAVE   SWELL
                          AIR SEA DIR/SP/G            HT/PER HT/PER
                          (F)     (DEG/KT/KT) (MB)    (FT/S) (FT/S)
SHELL POINT                71     220/  3/  4   N/A
KEATON BEACH               67     330/  3/  5 1015.6R
CEDAR KEY                  70     310/  5/  7 1014.3R
FERNANDINA                 67 73   80/  2/  2 1014.8S
30.7N   81.3W                 76                N/A     2/11   2/11
MAYPORT                    67 75   10/  6/  7   N/A
31.4N   80.9W              69 75  350/  4/  6 1015.6R   2/ 8   2/ 8
ST AUGUSTINE               71      10/ 11/ 13 1015.2R

$$
FLZ040-043>046-052-053-057-058-063-144-250100-
INTERIOR CENTRAL FLORIDA

CITY           SKY/WX    TMP DP  RH WIND       PRES   REMARKS
OCALA          CLEAR     64  52  63 CALM      29.95R
THE VILLAGES     N/A     68  55  64 NE6       29.85R
LEESBURG       CLEAR     68  56  65 NE6       29.95R
SANFORD        MOCLDY    70  58  65 N7        29.94
ORLANDO EXEC   CLOUDY    73  59  61 NE8       29.94R
ORLANDO INTL   PTCLDY    72  57  59 NE8       29.94R
KISSIMMEE      CLEAR     72  57  60 NE7       29.94R
WINTER HAVEN   CLEAR     69  57  65 NE9       29.94R
LAKELAND       PTCLDY    70  57  64 NE6       29.93R
BARTOW         FAIR      70  55  60 NE6       29.94R
OKEECHOBEE     CLEAR     68  59  73 MISG      29.90S

$$
FLZ041-047-054-059-064-141-147-250100-
EAST CENTRAL FLORIDA

CITY           SKY/WX    TMP DP  RH WIND       PRES   REMARKS
DAYTONA BEACH  PTCLDY    69  59  70 NW6       29.94S
DELAND         CLEAR     66  57  72 N3        29.96
NEW SMYRNA BEA PTCLDY    75  57  53 NE8       29.94S
JFK SPACE CTR  CLOUDY    71  56  58 NE6       29.92S
TITUSVILLE     MOCLDY    73  57  56 NE7       29.93R
CAPE CANAVERAL MOCLDY    73  56  54 NE5       29.92R
PATRICK AFB    CLOUDY    74  57  54 N13       29.92R
MELBOURNE      CLOUDY    75  57  53 NE9       29.91R
VERO BEACH     MOCLDY    73  58  59 NE12      29.90R
FT PIERCE      CLEAR     72  59  63 N5        29.89R

STATION/POSITION SKY/WX   TEMP    WIND        PRES    WAVE   SWELL
                          AIR SEA DIR/SP/G            HT/PER HT/PER
                          (F)     (DEG/KT/KT) (MB)    (FT/S) (FT/S)
28.5N   80.2W              75 80   60/ 12/ 16 1012.9R
28.9N   78.5W              75 82   50/  8/ 14 1013.1R   3/11   2/11
TRIDENT PIER               72 79   30/  3/  4 1012.7R
28.4N   80.5W                 79                N/A     3/11   2/11
27.6N   80.2W                 80                N/A     4/ 5   2/11

$$
FLZ050-056-061-142-242-148-248-149-249-151-251-155-255-
160-260-250100-
WEST CENTRAL FLORIDA

CITY           SKY/WX    TMP DP  RH WIND       PRES   REMARKS
CRYSTAL RIVER  FAIR      64  55  72 CALM      29.94R
INVERNESS      FAIR      63  55  77 CALM      29.95R
BROOKSVILLE    CLEAR     67  58  72 NE6       29.94R
ZEPHYRHILLS    FAIR      63  59  88 NE3       29.94R
CLEARWATER     CLEAR     71  60  68 N12       29.92R
TAMPA INTL     PTCLDY    70  58  65 N8        29.92R
PLANT CITY     CLEAR     72  59  64 NE5       29.94R
MACDILL AFB    CLEAR     71  62  73 N7        29.92R
ST PETERSBURG  CLEAR     73  60  63 N10       29.90R
SARASOTA       PTCLDY    72  61  68 N5        29.89R
VENICE           N/A     73  57  56 MISG      29.91R

STATION/POSITION SKY/WX   TEMP    WIND        PRES    WAVE   SWELL
                          AIR SEA DIR/SP/G            HT/PER HT/PER
                          (F)     (DEG/KT/KT) (MB)    (FT/S) (FT/S)
CEDAR KEY                  70     310/  5/  7 1014.3R
28.5N   84.5W              72 80   10/ 14/ 17 1015.1R   2/ 4
27.3N   84.3W                 81                N/A     3/ 5
CLEARWATER BEACH NOT AVBL
MIDDLE TAMPA BAY           73     350/ 12/ 15 1012.7F
VENICE                     76 79   10/  6/  7 1012.0R

$$
FLZ066-069-070-075>078-162-262-165-265-250100-
SOUTHWEST FLORIDA AND KEYS

CITY           SKY/WX    TMP DP  RH WIND       PRES   REMARKS
PUNTA GORDA    CLEAR     71  60  68 NE9       29.90R
FT MYERS       CLEAR     75  59  57 NE8       29.87R
SOUTHWEST INTL CLEAR     74  61  63 NE8       29.87R
NAPLES         CLEAR     75  63  66 NE7       29.85R
MARATHON       CLOUDY    78  72  81 N16G24    29.81R
KEY WEST NAS   MOCLDY    79  70  74 NE14G22   29.82R
KEY WEST INTL  CLEAR     79  73  82 NE10G21   29.83R

STATION/POSITION SKY/WX   TEMP    WIND        PRES    WAVE   SWELL
                          AIR SEA DIR/SP/G            HT/PER HT/PER
                          (F)     (DEG/KT/KT) (MB)    (FT/S) (FT/S)
VENICE                     76 79   10/  6/  7 1012.0R
NAPLES                     77 82   50/  5/  8 1011.5R
26.0N   85.6W              77 81   10/ 14/ 17 1013.6R   5/ 8   5/ 8
DRY TORTUGAS               80      20/ 19/ 21 1010.3R
NW FL BAY                  80      40/ 12/ 15 1009.5R
SAND KEY                   80      30/ 20/ 23 1009.6R
SOMBRERO KEY               78      20/ 23/ 25 1009.5R
LONG KEY                   78 78   30/ 19/ 22 1009.8R
MOLASSES REEF              80 82   30/ 24/ 26 1008.4R

$$
FLZ067-068-071>074-168-172>174-250100-
SOUTHEAST FLORIDA

CITY           SKY/WX    TMP DP  RH WIND       PRES   REMARKS
W PALM BEACH   MOCLDY    77  67  71 N13G23    29.84S
FT LAUDER-EXEC LGT RAIN  75  69  81 N9        29.83S
FT LAUDERDALE  LGT RAIN  78  70  76 N9        29.83R
POMPANO BEACH  MOCLDY    78  69  73 N14G21    29.84R
PEMBROKE PINES LGT RAIN  76  69  79 N14       29.84R
OPA LOCKA      CLOUDY    77  69  76 N12       29.83R
MIAMI          LGT RAIN  77  69  76 N7        29.83R
WEST KENDALL   MOCLDY    78  69  73 N12       29.83R
HOMESTEAD      PTCLDY    74  71  90 N6        29.82R

STATION/POSITION SKY/WX   TEMP    WIND        PRES    WAVE   SWELL
                          AIR SEA DIR/SP/G            HT/PER HT/PER
                          (F)     (DEG/KT/KT) (MB)    (FT/S) (FT/S)
PORT EVERGLADES            79      40/  9/ 23 1009.9
VIRGINIA KEY               77 80   30/  5/ 11 1010.0S
LAKE WORTH                 78 79   30/ 19/ 24 1010.4R
FOWEY ROCKS                78 82   40/ 25/ 28 1009.6R
SETTLEMENT POINT           78      50/ 18/ 21 1011.0S

$$




USA.gov is the U.S. government's official web portal to all federal, state and local government web resources and services.